Location: Unspecified
(0.0000°N, 0.0000°E)
Time: 23:47:27
(UTC+01:00)

HO-68 - Visible Passes

Search period start: 17 November 2017 00:00
Search period end: 27 November 2017 00:00
Orbit: 1193 x 1204 km, 100.1° (Epoch: 17 November)

Date Brightness Start Highest point End Pass type
(mag) Time Alt. Az. Time Alt. Az. Time Alt. Az.
17 Nov ? 19:56:44 10° S 20:03:55 79° WSW 20:11:07 10° NNW visible
18 Nov ? 19:39:53 10° SSE 19:47:04 75° ENE 19:54:13 10° N visible
19 Nov ? 19:23:14 10° SSE 19:30:11 53° ENE 19:37:08 10° N visible
19 Nov ? 21:13:28 10° SW 21:17:33 16° WSW 21:21:39 10° WNW visible
20 Nov ? 19:06:49 10° SE 19:13:19 38° ENE 19:19:49 10° N visible
20 Nov ? 20:55:14 10° SSW 21:00:42 24° WSW 21:06:12 10° NW visible
21 Nov ? 20:37:32 10° SSW 20:43:51 34° WSW 20:50:12 10° NW visible
22 Nov ? 20:20:09 10° S 20:27:00 49° WSW 20:33:52 10° NNW visible
23 Nov ? 20:03:00 10° S 20:10:08 69° WSW 20:17:16 10° NNW visible
24 Nov ? 19:46:03 10° SSE 19:53:16 86° ENE 20:00:28 10° NNW visible
25 Nov ? 19:29:19 10° SSE 19:36:24 62° ENE 19:43:28 10° N visible
25 Nov ? 21:20:33 10° SW 21:23:45 13° WSW 21:26:57 10° WNW visible
26 Nov ? 19:12:48 10° SE 19:19:32 44° ENE 19:26:15 10° N visible
26 Nov ? 21:01:55 10° SSW 21:06:55 20° WSW 21:11:55 10° WNW visible
